Location: Waco, TX
(31.5480°N, 97.1670°W)
Time: 04:31:22
(UTC-05:00)

ISS - Pass Details

Date: 07 May 2021
Orbit: 417 x 422 km, 51.6° (Epoch: 15 May)

Event Time Altitude Azimuth Distance (km) Brightness Sun altitude
Rises 07:34:29 0° 330° (NNW) 2,369 -0.1 10.7°
Reaches altitude 10° 07:37:04 10° 350° (N) 1,503 -0.9 11.2°
Maximum altitude 07:39:29 18° 35° (NE) 1,105 -0.7 11.7°
Drops below altitude 10° 07:41:53 10° 81° (E) 1,500 2.4 12.2°
Sets 07:44:27 0° 101° (ESE) 2,361 1.4 12.8°
